Regional Weather Roundup
Issued by NWS

Home | Current Version | Previous Version | Graphics & Text | Print | Product List | Glossary On
Versions: 1 2 3 4 5 6 7 8 9 10 11 12 13 14 15 16 17 18 19 20 21 22 23 24 25 26 27
000
ASUS45 KBOU 221707
RWRCO

WEATHER ROUNDUP FOR COLORADO
NATIONAL WEATHER SERVICE DENVER/BOULDER CO
1100 AM MDT FRI JUL 22 2016

NOTE: "FAIR" INDICATES FEW OR NO CLOUDS BELOW 12000 FEET WITH NO
SIGNIFICANT WEATHER AND/OR OBSTRUCTIONS TO VISIBILITY.

COZ001>005-013-030-031-221800-
...NORTHWEST COLORADO...

CITY           SKY/WX    TMP DP  RH WIND       PRES   REMARKS
CRAIG          FAIR      81  49  32 CALM      30.36F
HAYDEN         FAIR      75  46  35 CALM      30.40S
MEEKER         FAIR      78  52  40 CALM      30.38F
MOUNT WERNER   NOT AVBL
STEAMBOAT SPGS FAIR      73  52  46 CALM      30.42S
WALDEN         FAIR      72  45  37 S7        30.50F
$$

COZ006>008-011-221800-
...WEST CENTRAL VALLEYS...

CITY           SKY/WX    TMP DP  RH WIND       PRES   REMARKS
GRAND JUNCTION FAIR      84  53  34 SE10      30.27F
MONTROSE       FAIR      79  54  41 NW3       30.37S
EAGLE          SUNNY     73  52  46 CALM      30.44F
RIFLE          FAIR      80  52  37 E3        30.34F
DELTA          FAIR      83  53  36 CALM      30.33F
NUCLA          FAIR      77  54  44 E7        30.42S
$$

COZ017>023-064>068-221800-
...SOUTHWEST COLORADO...

CITY           SKY/WX    TMP DP  RH WIND       PRES   REMARKS
DURANGO        FAIR      78  48  34 W7        30.42F
CORTEZ         FAIR      79  53  40 SE5       30.37F
PAGOSA SPRINGS FAIR      77  40  27 E5        30.50F
TELLURIDE      FAIR      70  48  44 W13       30.63S
WOLF CREEK PAS FAIR      57  41  54 SW9G16    30.85S
$$

COZ009-010-012-014-032>034-037-058>063-221800-
...CENTRAL COLORADO...

CITY           SKY/WX    TMP DP  RH WIND       PRES   REMARKS
ASPEN          FAIR      72  52  49 VRB3      30.49S
BUENA VISTA    FAIR      73  46  38 SE7       30.50F
COPPER MTN     FAIR      61  41  48 NW7       30.82R
BERTHOUD PASS  FAIR      52  37  58 N7G16     30.85S
COTTONWOOD PAS FAIR      70  45  40 E6        30.65S
GUNNISON       FAIR      70  50  49 CALM      30.54F
KREMMLING      CLOUDY    63  50  63 N3        30.51F
LEADVILLE      FAIR      67  40  37 NW10G21   30.64S
MONARCH PASS   FAIR      55  43  62 SW9G18    30.92S
SALIDA         FAIR      76  49  38 N3        30.53F
SUNLIGHT       FAIR      63  48  59 CALM      30.76R
WILKERSON PASS FAIR      61  43  51 W5        30.79R
$$

COZ069>075-221800-
...SAN LUIS VALLEY/SANGRE DE CRISTO MOUNTAINS...

CITY           SKY/WX    TMP DP  RH WIND       PRES   REMARKS
ALAMOSA        FAIR      75  49  39 VRB3      30.48S
LA VETA PASS   FAIR      70  43  37 S7        30.69R
SAGUACHE       FAIR      75  48  38 SW3       30.50F
$$

COZ035-036-038>040-221800-
...NORTHERN COLORADO FRONT RANGE...

CITY           SKY/WX    TMP DP  RH WIND       PRES   REMARKS
DENVER INTL AP FAIR      88  46  23 VRB3      30.25S
DMNS CITY PARK   N/A     89  44  21 NE8       30.24S
AURORA         MOSUNNY   86  49  27 VRB5      30.27S
FRONT RANGE AP PTSUNNY   88  48  25 CALM      30.26S
ERIE MUNI ARPT FAIR      89  42  19 NE8       30.22F
BOULDER MUN AP FAIR      88  46  23 SE6       30.24S
CENTENNIAL     FAIR      88  43  20 E6        30.29S
BROOMFIELD     MOSUNNY   88  46  23 E8        30.27F
LONGMONT       FAIR      90  51  26 E8        30.23F
$$

COZ041-046-047-076>085-087-088-221800-
...PIKES PEAK/PALMER DIVIDE AND SOUTHERN FOOTHILLS...

CITY           SKY/WX    TMP DP  RH WIND       PRES   REMARKS
COLO. SPRINGS  PTSUNNY   85  47  26 S7        30.33S
A. F. ACADEMY  MOSUNNY   86  46  25 VRB5      30.33F
SCHRIEVER AFB  NOT AVBL
ELLICOTT       FAIR     N/A N/A N/A SW9       30.31S
FALCON         NOT AVBL
FORT CARSON    FAIR      87  46  24 SE7       30.28F
LIMON          FAIR      88  46  23 VRB5      30.25F
MONUMENT HILL  FAIR      81  46  30 CALM      30.40F
TRINIDAD       NOT AVBL
$$

COZ042>045-048>051-090-091-221800-
...NORTHEAST COLORADO...

CITY           SKY/WX    TMP DP  RH WIND       PRES   REMARKS
GREELEY ARPT   FAIR      90  55  31 SE5       30.20F
AKRON          FAIR      88  54  31 VRB3      30.20S
BURLINGTON       N/A     90  59  35 NE7       30.16F HAZE
WRAY           NOT AVBL
STERLING       FAIR      88  61  40 S5        30.14S
HOLYOKE        FAIR      95  70  43 W8        30.13S
FORT MORGAN    FAIR      90  48  23 S5        30.20R
$$

COZ086-089-092>099-221800-
...SOUTHEAST COLORADO...

CITY           SKY/WX    TMP DP  RH WIND       PRES   REMARKS
PUEBLO         FAIR      94  47  20 VRB5      30.19F
LA JUNTA       FAIR      90  54  29 W8        30.15F
LAMAR          FAIR      92  56  29 NW5       30.10S
SPRINGFIELD      N/A     97  50  20 S5        30.15R
$$




USA.gov is the U.S. government's official web portal to all federal, state and local government web resources and services.